Moscow/Domodedovo International Airport

Airport
ICAO code: 
UUDD
IATA Code: 
DME
Summary
ICAO Region: 
EUR
Territory: 
Location: 
Domodedovo, Moscow Oblast,
Serving: 
Moscow
Elevation: 
588 ft
Coordinates: 
Aerial View: 
55° 24' 31.247" N, 37° 54' 12.255" E
Metar
Observation
UUDD 221200Z 11004MPS 4800 -SN SCT011 M04/M06 Q1006 R88/590237 TEMPO 1200 SN
Station
Moscow / Domodedovo
Date/Time
2022-01-22 12:00:00
Wind direction
110°
Lowest cloud amount
scattered clouds
Temperature
-4°C
Dew point
-6°C
Humidity
85%
QNH
1006 hPa
Weather condition
n/a

Description

International airport serving Moscow, Russia.

Climatology

Humid Continental climate (Köppen climate classification Dfb) - Variable weather patterns and a large seasonal temperature variance. Summers are often warm and humid with frequent thunderstorms and winters can be very cold with frequent snowfall and persistent snow cover.

Runways

Designator Length Width Surface Rops
14C/32C 2600 45 CON Yes/Yes
14R/32L 3500 70 CON Yes/Yes
14L/32R 3794 53 CON Yes/Yes
Airport map: 
Aerial View: 

Accidents and Serious Incidents at or in the vicinity of UUDD

SKYbrary Partners:

Safety knowledge contributed by: